Wetbulb
73.75 72.85 71.56 68.88 59.82 58.03 54.55 57.53 62.23 59.81 61.52 66.15 66.11 63.98 62.24 62.74 60.55 53.93 67.31 68.99 71.27 71.96 73.24 75.27 77.46 77.52 76.96 76.77 77.41 77.06 76.63 77.11 77.14 76.92 76.80 76.82 76.84 76.72 76.60 76.25 76.23 76.29 75.90 75.85 75.71 75.66 75.53 75.19 75.30
72.77 71.67 70.52 66.23 57.75 51.09 53.99 60.34 59.66 62.11 64.40 66.30 66.25 65.00 62.09 60.49 64.29 65.33 65.89 70.66 72.42 72.92 73.52 74.73 77.28 77.55 77.15 76.81 77.28 77.24 76.88 76.86 76.55 76.77 77.11 76.92 76.91 76.93 76.69 76.53 76.61 76.23 76.04 75.60 75.39 75.75 75.34 75.12 75.13
71.79 72.22 65.19 62.05 55.88 52.00 54.46 59.49 61.71 64.45 66.47 66.29 63.82 65.05 62.89 61.93 65.04 65.60 68.84 71.46 72.75 72.55 73.80 75.04 77.67 77.66 77.37 76.77 76.74 76.75 77.10 76.38 76.74 76.78 76.57 76.86 76.80 76.57 76.46 76.38 76.16 75.91 75.72 75.39 75.56 75.40 75.26 74.73 74.56
69.76 69.00 66.90 59.23 56.36 58.13 58.84 61.96 63.62 64.27 65.43 65.69 63.59 59.92 64.10 67.38 65.49 67.77 70.50 72.22 71.72 72.87 73.50 76.58 77.02 77.31 76.67 77.02 76.96 76.95 76.82 76.72 77.23 77.25 76.77 76.77 77.03 76.36 76.36 76.30 76.17 76.14 75.84 75.48 75.42 75.34 75.07 74.87 74.26
69.86 66.47 59.56 57.77 57.44 60.13 62.44 64.53 65.29 62.81 64.02 64.10 63.85 59.71 61.53 65.57 68.44 69.28 70.03 71.46 71.27 71.86 74.06 75.07 77.60 77.52 76.94 77.35 77.13 77.00 77.04 76.70 76.88 77.33 76.57 76.52 76.66 76.63 76.52 76.39 76.52 76.36 76.14 76.08 75.81 75.64 75.48 74.87 74.59
64.34 61.79 55.37 52.99 54.03 60.06 62.77 64.57 65.13 64.94 64.31 63.38 61.44 60.91 60.85 66.54 67.58 68.35 69.84 69.86 72.25 72.92 73.90 75.06 77.09 77.00 77.36 76.60 77.20 76.95 77.16 76.98 76.83 76.84 77.07 76.90 76.73 76.73 76.61 76.58 76.42 76.29 75.79 75.57 75.72 75.37 75.20 75.12 74.76
62.88 56.94 53.50 53.58 56.21 58.48 61.95 65.73 64.36 63.99 62.73 62.43 65.41 58.66 62.17 64.36 67.57 68.21 68.06 70.60 72.03 73.50 74.03 74.29 74.96 75.17 77.08 76.95 76.98 77.49 76.87 77.43 77.20 77.04 77.00 76.83 76.79 76.63 76.56 76.59 76.51 76.12 75.79 75.42 75.26 75.34 75.23 74.95 74.84
62.56 56.47 55.53 56.91 54.87 57.35 63.85 63.74 65.53 64.72 63.40 67.17 64.62 57.50 59.71 63.45 67.20 67.48 68.83 70.87 71.71 72.92 73.66 73.14 73.37 73.13 74.07 74.51 76.66 77.13 77.04 77.15 77.09 76.72 76.62 76.38 76.67 76.59 76.31 76.55 77.10 75.98 75.78 75.47 75.28 75.15 75.51 75.35 75.23
66.53 53.95 53.03 54.49 55.93 57.96 62.98 62.14 66.68 67.92 65.03 66.62 66.84 62.32 64.12 65.57 66.38 65.69 69.11 69.63 70.78 72.44 72.77 72.88 72.47 72.85 73.18 73.59 74.70 76.55 76.92 76.75 76.57 75.99 76.36 74.91 72.16 72.51 73.79 74.76 75.70 75.67 75.58 75.24 75.42 75.65 74.40 74.95 75.22
63.09 52.91 55.14 59.10 60.30 60.02 62.46 63.41 65.30 63.94 64.26 63.75 61.43 63.76 65.09 64.73 64.16 64.57 67.33 67.97 68.84 70.74 72.70 72.21 72.12 72.30 72.78 74.58 72.85 72.70 73.91 73.47 73.37 73.15 72.08 70.77 71.17 70.41 73.61 74.72 75.54 75.18 75.50 75.70 75.87 75.65 75.23 74.05 69.92
63.32 55.91 60.62 60.79 63.55 63.45 62.50 63.16 65.04 63.64 61.79 63.80 59.59 61.46 63.08 62.70 64.00 64.86 67.46 68.29 68.61 70.66 72.51 71.87 71.87 71.69 72.24 72.75 71.90 71.90 72.16 72.44 72.37 70.64 69.05 69.37 70.36 70.69 72.26 72.16 72.85 70.43 72.12 70.84 71.04 71.71 71.77 71.02 70.37
59.48 63.30 63.65 63.80 64.44 63.60 62.27 63.92 63.62 64.71 64.44 66.52 63.17 63.33 62.39 61.93 63.36 65.46 67.35 68.28 68.96 70.34 71.52 71.48 71.39 71.30 71.03 71.12 71.20 71.27 71.66 71.82 71.28 69.08 67.96 68.57 70.18 70.75 71.11 71.15 70.83 70.93 70.37 70.31 70.64 70.29 71.34 70.45 68.63
59.41 62.05 63.24 65.03 64.91 64.68 64.18 63.48 64.14 64.23 66.97 66.70 64.11 63.21 61.97 62.94 64.59 67.09 68.40 69.25 69.51 69.34 70.61 70.61 70.96 70.96 70.27 70.27 70.39 70.63 70.71 71.34 71.46 67.50 68.22 70.19 69.93 70.31 71.28 71.16 70.06 70.42 70.50 69.61 66.31 69.76 68.98 68.51 68.01
59.59 60.81 61.61 62.49 62.35 62.14 61.87 63.03 64.00 65.04 66.83 65.10 63.61 62.20 62.61 63.96 66.00 67.03 67.21 68.13 68.62 69.34 69.61 70.05 70.69 70.99 69.42 69.34 68.73 69.92 70.24 70.73 70.94 70.24 67.67 70.35 68.65 69.64 70.24 70.84 70.68 70.53 70.50 69.58 67.70 69.31 65.76 66.20 67.44
56.51 55.23 56.36 59.16 60.96 60.61 62.92 57.72 59.59 65.61 65.67 64.23 63.28 63.23 64.01 65.58 66.88 66.84 67.18 67.67 68.33 68.83 69.27 69.11 70.18 70.88 69.13 68.80 67.87 68.86 69.47 70.35 69.97 71.10 69.88 70.88 69.79 70.71 71.56 70.96 70.14 70.00 70.13 68.95 69.62 69.91 69.10 66.12 67.72
52.11 51.54 47.52 56.45 59.98 61.41 60.67 52.94 62.90 65.16 63.86 63.17 64.12 64.12 64.66 65.39 66.82 67.97 68.16 67.61 68.35 68.49 68.30 68.82 71.16 70.60 69.39 68.86 67.43 67.81 68.86 69.21 69.77 71.04 71.02 71.26 71.32 71.33 70.57 70.57 69.89 70.41 70.21 70.19 69.84 69.17 69.22 67.23 67.31
44.38 43.41 49.24 52.95 59.70 60.28 59.40 56.92 62.80 65.10 63.66 62.61 63.52 64.35 64.91 65.41 67.04 67.90 68.41 68.58 67.89 67.67 67.75 68.07 69.51 69.92 69.40 68.79 68.83 68.79 68.96 68.86 69.69 71.02 71.28 71.36 72.03 73.03 71.57 71.07 71.02 71.12 70.04 70.52 70.27 69.57 69.42 67.23 67.08
41.17 44.56 47.37 49.22 55.11 59.68 57.10 56.16 62.02 63.86 63.47 62.89 63.48 64.24 64.66 65.02 66.03 67.83 68.41 68.81 68.94 67.65 67.30 68.31 69.02 69.81 69.60 68.80 69.13 69.25 69.10 69.64 70.03 70.31 70.99 71.75 72.51 73.03 71.78 71.38 70.41 71.00 69.42 69.32 69.32 67.08 65.41 62.08 64.14
47.25 48.01 48.78 52.24 55.94 55.34 56.26 57.51 60.88 62.52 62.80 62.72 62.93 63.46 64.21 64.67 67.06 67.88 68.56 69.09 68.99 68.07 66.89 67.64 68.21 69.10 69.91 68.51 68.18 67.32 67.03 67.82 69.38 70.48 71.11 71.29 72.17 73.25 71.63 70.83 71.24 70.72 68.89 69.99 68.78 67.50 63.84 62.69 62.96
45.49 44.39 46.32 51.45 54.41 52.26 51.63 55.77 61.17 61.97 62.00 62.98 62.80 63.18 63.88 64.78 65.72 66.65 67.28 68.53 68.46 67.59 67.40 67.51 68.13 68.41 70.03 69.56 70.22 67.91 67.08 67.49 68.83 69.68 70.60 71.06 72.04 72.92 72.54 71.95 71.47 71.03 69.62 70.09 69.10 68.16 65.87 62.05 63.71
44.53 43.54 45.38 47.69 51.55 52.57 52.54 53.69 57.00 61.75 63.00 63.69 64.12 64.41 64.88 64.79 64.86 65.80 66.46 67.20 68.12 67.48 67.77 67.59 67.86 68.24 70.33 70.30 69.04 69.03 68.68 68.25 67.99 68.17 69.88 70.39 71.99 72.96 73.16 72.23 71.28 70.97 70.48 69.61 69.14 69.02 65.21 61.06 64.31
41.28 48.16 49.14 48.66 48.36 42.19 49.83 46.43 55.85 59.25 59.92 61.85 62.86 63.64 64.53 65.16 65.95 66.12 66.62 66.80 67.62 67.88 68.70 68.59 68.29 68.32 70.00 69.89 69.30 68.52 67.61 66.90 66.34 67.59 69.65 70.58 72.04 72.79 73.71 72.26 71.79 71.57 71.71 70.43 69.98 70.52 67.96 62.53 62.41
45.68 49.40 48.40 48.53 44.24 42.19 45.48 43.78 51.05 58.88 57.44 59.90 62.18 63.69 65.06 65.77 66.19 66.00 66.75 67.68 68.50 68.76 68.67 68.94 68.75 68.48 69.43 69.69 69.85 68.94 66.85 66.67 68.38 67.77 68.44 70.41 71.35 72.55 73.64 72.91 71.99 71.29 71.31 70.68 70.65 70.21 68.93 66.67 61.73
51.52 47.78 46.33 44.82 42.00 39.12 44.53 43.26 41.79 53.53 57.48 59.91 62.43 63.66 65.06 65.68 66.60 67.23 67.78 68.39 68.55 69.41 68.88 69.05 68.67 68.44 68.94 69.66 69.40 68.88 68.37 67.47 68.13 67.41 67.22 69.10 70.61 71.80 72.74 72.79 71.83 71.35 71.48 70.41 69.99 70.70 69.98 69.14 66.42
49.72 43.18 34.95 35.03 34.94 38.27 44.57 41.76 46.61 54.37 59.66 60.78 61.65 62.97 64.22 64.29 65.81 66.58 66.57 67.40 68.02 68.33 68.45 68.78 68.64 68.31 68.89 69.19 69.50 69.19 68.68 68.30 68.68 68.28 67.48 67.61 69.39 69.91 71.45 72.44 71.74 71.20 71.33 71.95 70.58 69.51 70.37 69.50 69.45
47.18 44.98 36.31 30.62 33.57 39.65 41.93 38.53 43.29 53.15 60.52 62.41 63.24 63.64 63.63 62.38 64.93 66.43 66.58 66.95 67.78 68.19 68.47 68.45 68.85 68.58 69.08 69.51 69.80 69.93 69.55 69.41 69.44 69.23 68.83 68.69 69.57 70.76 71.76 72.75 72.77 72.23 72.15 72.32 71.32 70.25 70.17 70.58 69.23
45.95 44.45 46.10 36.82 32.46 35.24 41.85 39.66 45.33 49.28 55.83 59.98 61.49 62.61 62.24 62.32 63.86 66.09 67.31 67.38 67.38 67.92 68.39 68.70 68.87 69.44 69.48 69.71 70.49 70.48 70.26 70.17 69.91 69.37 69.40 69.35 69.72 71.07 70.88 72.56 73.10 72.91 72.75 72.25 71.66 70.41 70.49 71.48 70.58
49.51 48.72 40.78 36.25 32.10 31.70 35.01 37.34 41.62 45.04 48.17 53.43 59.69 60.87 62.26 63.05 63.82 65.89 67.30 67.50 68.05 68.30 69.02 69.26 69.29 69.65 70.12 70.43 70.73 71.00 71.04 71.06 71.00 70.18 69.20 68.64 69.56 71.19 71.27 71.42 72.38 72.74 72.96 72.41 71.86 71.05 70.55 70.69 71.04
45.12 44.75 44.80 43.70 36.70 36.44 30.21 39.44 43.99 46.13 47.72 49.01 57.24 60.86 61.51 62.71 64.27 65.69 66.63 67.90 68.40 68.51 69.37 69.12 69.22 69.37 70.18 70.88 71.16 71.24 71.44 71.63 71.55 71.02 70.21 70.82 69.25 70.51 71.54 71.57 71.93 72.59 72.64 72.56 72.06 71.90 71.47 70.49 70.58
48.72 44.42 40.66 43.13 36.76 33.59 34.62 40.16 47.22 47.52 48.14 50.28 54.34 59.32 62.13 64.14 65.18 66.20 66.54 66.96 67.88 68.02 68.89 69.33 69.42 69.42 70.05 71.34 71.20 71.32 71.73 72.18 72.18 71.71 70.53 70.21 70.61 70.42 70.80 71.99 71.99 72.46 72.76 72.65 72.16 71.81 72.82 71.76 70.75
MSLP
1010.86 1011.26 1011.77 1012.00 1011.96 1011.73 1010.62 1009.61 1009.10 1009.10 1009.16 1008.22 1008.35 1009.23 1010.35 1011.46 1012.01 1013.64 1013.69 1013.95 1014.20 1014.67 1014.77 1014.94 1015.00 1015.11 1015.33 1015.54 1015.72 1015.90 1016.13 1016.04 1016.16 1016.25 1016.28 1016.37 1016.46 1016.51 1016.53 1016.72 1016.87 1016.96 1017.10 1017.17 1017.36 1017.44 1017.48 1017.59 1017.61
1010.94 1011.51 1011.84 1011.16 1011.40 1010.96 1009.97 1009.16 1008.64 1008.30 1008.28 1008.29 1008.78 1009.36 1010.35 1011.82 1012.27 1013.08 1013.75 1014.08 1014.15 1014.57 1014.82 1015.07 1015.23 1015.31 1015.48 1015.72 1015.80 1016.02 1016.21 1016.30 1016.48 1016.57 1016.60 1016.68 1016.76 1016.79 1016.85 1016.98 1017.06 1017.21 1017.29 1017.45 1017.60 1017.62 1017.74 1017.84 1017.93
1011.05 1011.00 1011.28 1010.66 1010.77 1010.17 1009.48 1008.97 1008.50 1008.01 1007.98 1007.96 1008.72 1009.41 1010.83 1011.90 1012.53 1013.28 1013.44 1013.89 1014.22 1014.72 1015.02 1015.21 1015.32 1015.49 1015.64 1015.88 1016.00 1016.26 1016.37 1016.49 1016.62 1016.74 1016.92 1017.03 1016.96 1017.05 1017.16 1017.29 1017.40 1017.52 1017.62 1017.62 1017.77 1017.85 1017.95 1018.03 1017.95
1010.92 1011.18 1011.13 1010.70 1010.07 1009.42 1008.75 1008.41 1008.22 1007.62 1008.13 1008.35 1009.08 1010.35 1011.61 1011.81 1012.58 1013.08 1013.66 1014.02 1014.44 1014.75 1015.05 1015.24 1015.46 1015.65 1015.86 1016.05 1016.24 1016.47 1016.63 1016.72 1016.85 1016.96 1017.09 1017.14 1017.23 1017.34 1017.37 1017.50 1017.64 1017.75 1017.84 1017.90 1017.93 1018.02 1018.11 1018.25 1018.35
1010.69 1010.70 1010.67 1010.53 1009.77 1008.87 1008.47 1008.11 1007.99 1008.06 1008.35 1008.70 1009.23 1011.19 1012.29 1012.98 1013.01 1013.49 1013.96 1014.30 1014.62 1015.09 1015.17 1015.39 1015.62 1015.87 1016.05 1016.19 1016.41 1016.67 1016.83 1016.99 1017.10 1017.22 1017.35 1017.41 1017.49 1017.56 1017.59 1017.71 1017.83 1017.95 1018.04 1018.11 1018.14 1018.17 1018.31 1018.48 1018.45
1010.71 1010.81 1010.56 1010.16 1009.50 1008.84 1008.41 1008.42 1008.12 1007.92 1008.74 1009.23 1010.17 1011.33 1013.03 1013.39 1013.56 1013.96 1014.28 1014.54 1014.72 1015.13 1015.32 1015.53 1015.82 1016.05 1016.20 1016.35 1016.52 1016.82 1017.06 1017.28 1017.41 1017.53 1017.58 1017.71 1017.79 1017.81 1017.92 1017.97 1018.10 1018.14 1018.21 1018.28 1018.40 1018.56 1018.57 1018.62 1018.67
1010.49 1010.70 1010.47 1010.18 1009.53 1008.73 1008.34 1008.01 1008.03 1008.37 1008.96 1009.27 1009.58 1011.46 1013.12 1013.62 1013.79 1014.11 1014.56 1014.85 1014.99 1015.17 1015.46 1015.75 1015.93 1016.21 1016.28 1016.48 1016.73 1016.94 1017.26 1017.40 1017.59 1017.81 1017.86 1017.88 1017.89 1018.01 1018.07 1018.15 1018.27 1018.27 1018.35 1018.49 1018.63 1018.61 1018.72 1018.80 1018.86
1010.16 1010.49 1010.16 1009.65 1009.39 1009.10 1008.71 1008.58 1008.30 1008.39 1008.80 1008.86 1009.46 1011.18 1012.47 1013.17 1013.77 1014.30 1014.76 1015.20 1015.46 1015.56 1015.68 1015.96 1016.14 1016.38 1016.47 1016.65 1016.88 1017.07 1017.41 1017.60 1017.73 1017.91 1018.02 1018.08 1018.13 1018.14 1018.22 1018.35 1018.47 1018.43 1018.49 1018.65 1018.65 1018.69 1018.85 1018.93 1018.91
1009.70 1010.29 1009.88 1009.06 1008.81 1008.91 1008.50 1008.32 1008.00 1008.18 1008.55 1008.74 1009.16 1010.21 1011.27 1012.69 1013.67 1014.54 1015.01 1015.51 1015.75 1015.95 1016.15 1016.17 1016.38 1016.55 1016.72 1016.88 1016.99 1017.19 1017.52 1017.74 1017.84 1018.02 1018.18 1018.39 1018.62 1018.54 1018.55 1018.58 1018.66 1018.72 1018.67 1018.73 1018.79 1018.92 1018.87 1018.90 1019.06
1009.47 1009.61 1008.66 1007.74 1008.02 1008.09 1008.15 1008.29 1008.02 1008.56 1008.57 1009.20 1009.96 1010.54 1011.84 1012.83 1013.55 1014.29 1014.84 1015.25 1015.65 1015.95 1016.28 1016.43 1016.47 1016.69 1016.89 1016.90 1017.19 1017.46 1017.73 1017.87 1018.06 1018.34 1018.55 1018.72 1018.85 1018.92 1018.81 1018.71 1018.66 1018.90 1018.86 1018.88 1018.95 1019.03 1018.94 1018.98 1019.15
1008.76 1008.26 1007.57 1007.02 1006.81 1006.87 1007.44 1007.71 1008.13 1008.44 1008.54 1008.64 1009.47 1010.83 1011.58 1012.63 1013.47 1014.11 1014.84 1015.09 1015.23 1015.70 1016.14 1016.48 1016.48 1016.80 1016.96 1016.97 1017.45 1017.69 1017.94 1018.10 1018.32 1018.56 1018.72 1018.90 1018.97 1019.04 1018.97 1018.94 1018.98 1019.02 1018.93 1019.14 1019.31 1019.34 1019.21 1019.05 1019.09
1008.18 1006.96 1007.09 1006.50 1006.40 1006.72 1007.02 1007.07 1007.41 1008.18 1007.67 1007.85 1009.14 1010.01 1010.72 1011.95 1012.87 1013.52 1014.35 1014.78 1015.15 1015.54 1015.87 1016.35 1016.39 1016.81 1017.02 1017.18 1017.55 1017.69 1017.95 1018.23 1018.49 1018.67 1018.80 1019.02 1019.07 1019.07 1019.04 1019.19 1019.22 1019.24 1019.14 1019.23 1019.29 1019.60 1019.35 1019.22 1019.12
1007.53 1006.42 1006.35 1006.42 1006.20 1006.10 1006.11 1006.51 1006.87 1007.32 1007.62 1008.48 1009.61 1010.59 1011.19 1011.82 1012.57 1013.24 1013.98 1014.63 1014.93 1015.21 1015.62 1016.12 1016.21 1016.77 1016.96 1017.29 1017.51 1017.73 1017.92 1018.18 1018.38 1018.68 1018.79 1018.97 1019.09 1019.04 1019.09 1019.13 1019.33 1019.41 1019.27 1019.35 1019.71 1019.64 1019.58 1019.39 1019.34
1006.31 1006.45 1006.12 1005.76 1005.25 1005.20 1005.33 1006.07 1006.38 1007.08 1008.10 1009.16 1009.81 1010.50 1010.97 1011.48 1011.92 1012.77 1013.41 1014.05 1014.46 1014.78 1015.20 1015.80 1016.11 1016.29 1016.79 1017.19 1017.40 1017.50 1017.84 1018.10 1018.30 1018.52 1018.75 1019.00 1019.09 1019.19 1019.15 1019.15 1019.28 1019.41 1019.43 1019.39 1019.53 1019.91 1019.97 1019.76 1019.60
1006.61 1006.76 1006.11 1005.21 1004.57 1004.72 1004.80 1006.04 1006.47 1007.40 1008.42 1009.31 1009.91 1010.60 1011.16 1011.53 1011.88 1012.23 1012.83 1013.37 1013.75 1014.27 1014.76 1015.38 1015.82 1015.96 1016.65 1017.02 1017.28 1017.49 1017.68 1017.93 1018.15 1018.26 1018.50 1018.85 1018.95 1019.00 1018.88 1019.10 1019.28 1019.42 1019.59 1019.36 1019.51 1019.83 1019.98 1020.17 1019.76
1006.05 1006.52 1006.44 1004.83 1004.59 1004.41 1004.59 1005.60 1006.65 1007.27 1007.99 1009.34 1010.16 1010.48 1010.80 1010.98 1011.11 1011.74 1012.43 1013.04 1013.45 1013.89 1014.41 1014.98 1015.45 1015.88 1016.31 1016.69 1017.02 1017.31 1017.59 1017.75 1017.84 1017.98 1018.20 1018.54 1018.75 1018.87 1019.01 1019.11 1019.28 1019.49 1019.66 1019.55 1019.77 1019.81 1020.02 1020.34 1020.16
1006.42 1006.13 1005.61 1004.61 1003.96 1004.13 1004.45 1005.42 1006.62 1007.35 1007.91 1008.72 1009.59 1010.01 1010.34 1010.78 1011.05 1011.22 1011.47 1012.23 1012.92 1013.32 1013.94 1014.60 1015.10 1015.58 1015.97 1016.24 1016.66 1017.04 1017.26 1017.45 1017.46 1017.65 1017.93 1018.27 1018.62 1018.80 1018.94 1019.05 1019.25 1019.40 1019.71 1019.77 1019.98 1020.06 1020.15 1020.06 1020.42
1006.44 1006.00 1005.10 1004.33 1003.75 1003.85 1004.43 1005.03 1006.18 1006.84 1007.75 1008.20 1008.90 1009.34 1009.69 1009.83 1009.69 1010.11 1010.96 1011.50 1012.24 1012.80 1013.46 1014.12 1014.70 1015.20 1015.69 1016.10 1016.58 1016.94 1017.22 1017.25 1017.32 1017.53 1017.75 1018.15 1018.60 1018.76 1018.91 1019.04 1019.23 1019.44 1019.75 1020.11 1020.08 1020.02 1020.28 1020.37 1020.42
1005.87 1005.54 1004.81 1003.63 1003.64 1003.73 1004.19 1004.79 1005.74 1006.35 1007.53 1008.44 1008.43 1008.61 1009.03 1009.26 1009.79 1010.27 1010.27 1010.96 1011.67 1012.39 1013.02 1013.62 1014.22 1014.73 1015.46 1016.11 1016.68 1017.13 1017.37 1017.29 1017.45 1017.53 1017.56 1018.03 1018.45 1018.76 1018.75 1018.94 1019.18 1019.34 1019.76 1019.92 1020.10 1020.34 1020.52 1020.77 1020.71
1005.85 1005.46 1004.80 1003.57 1003.44 1003.70 1003.84 1004.40 1004.73 1005.78 1005.96 1006.44 1006.91 1007.69 1008.26 1008.92 1009.33 1009.69 1009.95 1010.19 1010.96 1011.67 1012.30 1013.03 1013.53 1014.25 1014.89 1015.54 1015.98 1016.42 1016.62 1017.08 1017.13 1017.29 1017.38 1017.70 1018.28 1018.56 1018.70 1018.68 1019.09 1019.24 1019.70 1020.02 1020.20 1020.36 1020.85 1020.97 1021.00
1005.20 1004.97 1004.74 1003.95 1003.57 1003.50 1003.97 1004.24 1004.38 1005.31 1006.26 1007.12 1007.31 1006.89 1007.63 1007.69 1008.03 1008.54 1009.05 1009.26 1010.10 1010.94 1011.49 1012.23 1012.85 1013.55 1014.22 1014.92 1015.71 1016.26 1016.50 1016.83 1017.24 1017.40 1017.61 1017.71 1017.94 1018.21 1018.62 1018.63 1018.90 1019.19 1019.52 1019.90 1020.09 1020.32 1020.64 1021.06 1021.22
1004.52 1004.19 1004.47 1004.35 1004.49 1004.47 1003.80 1004.56 1004.80 1005.28 1005.78 1006.17 1006.25 1006.49 1006.66 1007.17 1007.52 1007.89 1008.30 1008.69 1008.95 1009.73 1010.94 1011.53 1012.28 1012.93 1013.63 1014.43 1015.13 1015.63 1015.99 1016.53 1016.81 1017.15 1017.45 1017.65 1017.74 1018.00 1018.36 1018.62 1018.85 1019.07 1019.34 1019.75 1019.92 1020.17 1020.53 1020.87 1021.24
1003.05 1003.83 1004.36 1004.50 1004.80 1004.86 1004.36 1004.81 1004.03 1004.26 1004.94 1004.82 1004.92 1004.73 1005.38 1005.86 1006.38 1006.76 1007.04 1007.41 1007.93 1009.09 1010.06 1010.96 1011.59 1012.43 1012.99 1013.80 1014.27 1015.09 1015.62 1015.94 1016.43 1016.95 1017.37 1017.71 1017.71 1017.79 1017.97 1018.37 1018.67 1019.04 1019.25 1019.51 1019.87 1020.14 1020.55 1020.80 1021.17
1002.89 1003.62 1004.33 1004.78 1005.30 1004.55 1003.83 1004.38 1003.54 1003.19 1003.20 1003.28 1003.47 1003.35 1003.75 1004.17 1004.99 1005.57 1006.05 1006.73 1007.36 1008.22 1009.15 1010.27 1011.02 1011.63 1012.42 1013.16 1013.82 1014.39 1015.06 1015.65 1016.22 1016.80 1017.27 1017.58 1017.70 1017.83 1017.83 1018.07 1018.48 1018.76 1019.06 1019.49 1019.69 1019.94 1020.39 1020.72 1020.97
1002.63 1003.46 1004.93 1005.58 1005.39 1003.14 1003.20 1003.46 1002.12 1001.41 1001.16 1001.27 1001.67 1001.73 1002.16 1002.89 1003.74 1004.32 1005.16 1005.77 1006.45 1007.20 1008.16 1009.31 1010.26 1011.02 1011.68 1012.56 1013.20 1013.79 1014.29 1015.03 1015.41 1016.10 1016.74 1017.19 1017.48 1017.64 1017.74 1017.91 1018.36 1018.70 1018.77 1019.04 1019.35 1019.87 1020.23 1020.54 1020.83
1001.55 1002.43 1003.38 1004.05 1004.07 1003.56 1003.03 1001.51 1000.15 999.92 999.78 999.82 999.87 999.83 1001.65 1002.73 1002.97 1003.07 1003.52 1004.32 1005.20 1006.05 1007.13 1008.13 1009.35 1010.31 1010.99 1011.77 1012.38 1013.13 1013.75 1014.31 1014.83 1015.37 1016.00 1016.43 1016.77 1017.07 1017.03 1017.45 1017.77 1018.10 1018.38 1018.70 1019.08 1019.63 1019.95 1020.17 1020.44
1000.53 1000.85 1002.43 1003.40 1004.16 1003.56 1001.74 1000.98 999.68 998.91 998.82 998.82 998.87 999.67 1000.63 1001.38 1002.13 1002.40 1002.42 1003.20 1004.18 1005.17 1006.02 1007.00 1008.17 1009.17 1010.18 1010.80 1011.68 1012.48 1013.15 1013.74 1014.26 1014.79 1015.27 1015.72 1016.14 1016.52 1016.82 1017.00 1017.52 1017.67 1017.97 1018.32 1018.77 1019.31 1019.60 1019.81 1020.03
999.12 1000.47 1001.95 1002.54 1003.29 1002.85 1001.26 1000.07 998.94 998.60 998.51 998.29 998.40 998.78 999.28 999.71 1000.53 1001.27 1001.99 1002.36 1003.13 1004.04 1004.99 1006.18 1007.20 1008.09 1008.93 1010.07 1010.84 1011.64 1012.28 1012.94 1013.49 1014.17 1014.75 1015.21 1015.69 1016.10 1016.40 1016.78 1017.10 1017.34 1017.50 1017.88 1018.49 1018.95 1019.15 1019.56 1019.65
999.21 999.23 1000.03 1001.62 1002.20 1001.92 1000.98 998.54 997.38 997.71 997.68 997.51 997.27 997.27 997.78 998.50 999.03 999.73 1000.53 1001.14 1002.08 1003.27 1004.56 1005.57 1006.59 1007.52 1008.50 1009.29 1010.06 1010.83 1011.53 1012.20 1012.85 1013.48 1014.09 1014.63 1015.22 1015.72 1016.02 1016.28 1016.59 1016.85 1017.11 1017.59 1018.07 1018.44 1018.84 1019.21 1019.36
999.18 999.39 999.82 1000.14 1000.87 1001.01 1000.37 997.52 996.03 996.02 996.35 996.40 996.30 996.26 996.59 997.07 997.43 998.23 999.19 1000.10 1001.27 1002.28 1003.60 1004.56 1005.68 1006.68 1007.40 1008.15 1008.96 1009.91 1010.61 1011.40 1012.17 1012.70 1013.28 1013.88 1014.66 1015.14 1015.53 1015.80 1016.11 1016.38 1016.65 1017.02 1017.45 1017.95 1018.30 1018.63 1018.89
Wind_Speed
10 8 3 2 2 2 3 2 2 4 4 7 15 6 7 5 1 3 7 7 12 9 7 11 16 17 17 17 16 17 16 16 16 15 15 15 15 14 14 13 12 11 10 10 10 10 11 11 12
8 10 1 2 2 0 2 3 4 7 3 7 9 7 5 4 4 11 8 12 12 11 7 10 15 16 17 16 16 15 15 16 14 13 13 13 13 14 13 13 11 11 8 7 9 10 10 9 10
10 6 0 2 2 2 1 5 6 8 7 5 5 8 5 3 11 12 14 15 13 9 7 10 15 15 17 16 16 14 14 15 14 12 13 13 13 13 13 11 11 10 8 7 8 9 9 8 8
6 3 2 1 6 5 3 4 7 7 5 7 8 9 5 5 14 8 17 14 12 10 8 15 17 17 17 16 16 14 14 13 13 13 12 11 12 12 12 11 10 10 9 8 9 10 9 9 7
2 2 2 2 3 3 4 6 10 3 4 4 3 7 9 4 13 19 14 13 13 8 8 11 16 15 16 16 15 14 14 12 11 12 11 11 12 12 11 11 11 11 10 10 10 11 10 10 7
1 0 2 2 4 4 1 2 6 5 5 6 9 9 3 9 19 15 13 11 11 10 6 9 15 16 14 15 13 14 13 13 11 10 10 11 11 11 10 10 10 11 10 10 11 11 10 8 8
1 2 3 1 3 2 6 12 3 5 6 5 13 6 6 11 17 15 10 10 9 9 7 6 7 12 15 14 13 14 11 12 11 11 9 10 11 10 9 9 10 10 10 9 9 10 10 9 9
3 2 2 2 2 2 4 9 3 6 1 11 12 8 10 14 17 14 8 10 8 7 6 6 6 6 6 6 13 13 12 11 11 10 9 8 9 10 8 5 6 8 8 8 6 6 7 10 9
4 2 3 4 5 2 5 5 7 4 10 3 4 7 12 21 18 13 12 8 8 6 6 5 6 5 5 5 7 11 11 11 11 9 8 6 2 3 5 2 3 6 7 6 5 4 2 4 7
4 3 7 7 10 5 2 1 1 3 8 4 8 17 22 22 19 16 15 13 12 12 9 6 6 6 5 5 3 4 4 3 4 4 4 2 2 0 2 1 2 3 4 5 6 6 4 3 1
6 6 7 10 8 11 8 8 5 8 4 7 18 23 26 24 19 15 14 14 13 12 10 7 6 5 6 5 3 2 2 2 2 3 2 2 1 2 0 0 2 2 4 2 4 3 3 1 2
5 11 8 6 11 10 7 6 7 13 6 12 21 26 28 26 20 17 16 15 14 13 12 9 7 6 5 3 3 4 3 3 2 3 3 3 2 2 2 1 1 0 2 3 3 3 3 3 2
16 13 6 14 13 12 5 12 8 20 7 18 22 24 25 22 19 15 15 13 14 14 12 12 9 7 6 5 3 4 4 3 3 4 3 2 3 3 2 2 2 1 0 1 2 3 3 4 5
4 14 16 12 13 7 13 8 6 2 18 20 23 24 23 22 21 15 16 16 15 14 13 12 11 9 6 6 6 4 4 4 4 4 4 4 3 3 3 2 3 2 1 2 2 2 2 3 3
10 11 8 10 13 5 8 4 7 15 18 21 22 21 20 20 18 17 15 17 16 14 14 13 12 10 8 7 6 4 4 4 4 5 6 6 5 5 5 3 3 1 2 0 2 2 1 1 2
3 6 3 9 9 8 10 6 14 20 22 20 20 19 19 21 20 16 15 15 16 14 14 13 12 11 10 7 5 4 4 4 5 5 4 6 5 5 3 4 3 1 2 1 2 1 1 4 3
3 4 6 6 11 6 8 6 17 19 20 22 20 20 19 19 18 17 17 16 17 14 14 13 12 11 10 7 5 5 6 4 4 4 4 6 5 5 4 4 3 3 1 1 2 1 0 2 2
6 4 5 7 5 13 9 3 20 21 20 22 21 20 20 22 23 21 18 18 14 14 13 14 11 10 10 5 3 3 3 3 3 4 4 6 4 5 4 4 4 4 2 2 1 2 3 1 2
4 4 5 5 8 8 12 10 20 22 18 18 20 20 20 22 18 17 19 17 16 13 15 15 14 12 8 3 4 3 4 3 1 3 6 6 5 5 6 4 3 3 4 2 2 2 2 3 2
8 5 6 11 5 5 5 15 20 23 26 26 24 22 21 19 19 19 19 19 18 15 17 17 17 13 11 8 7 4 4 3 3 3 5 7 6 6 4 5 5 4 2 3 3 3 1 2 1
16 15 8 9 5 3 5 7 17 20 8 13 16 21 19 23 23 22 22 22 19 18 17 17 18 16 14 13 4 2 3 3 3 1 2 4 6 6 6 6 5 4 3 3 3 3 3 2 1
18 13 14 13 2 4 5 5 8 15 18 19 21 21 21 23 22 20 21 21 22 20 16 17 17 16 15 13 10 9 7 8 4 4 3 4 6 7 6 6 5 5 3 4 3 3 2 3 2
13 8 9 10 3 3 5 2 7 19 18 23 23 25 23 24 23 24 24 24 23 19 17 17 17 17 17 14 15 11 6 4 3 3 6 5 5 6 7 6 6 5 4 4 5 4 4 2 3
5 6 5 1 3 12 14 8 7 15 21 23 24 26 25 23 24 24 25 20 20 19 18 17 18 18 17 15 15 14 13 7 5 4 5 4 4 5 6 6 5 5 5 5 5 4 5 4 2
10 10 2 6 6 15 8 9 13 18 26 27 29 30 26 22 22 21 22 23 21 22 21 18 20 20 18 17 16 15 14 11 12 8 5 5 4 3 6 6 6 4 5 6 5 5 4 5 3
16 12 7 10 8 12 6 9 8 15 19 28 28 30 20 17 18 24 22 22 22 23 22 22 21 20 19 19 19 15 14 9 8 9 6 6 6 6 7 8 7 7 6 6 5 3 4 5 5
9 23 9 6 2 3 7 5 7 7 15 18 25 21 21 20 19 23 23 22 21 22 24 24 22 22 20 21 17 16 13 12 10 9 10 8 6 6 7 9 9 7 7 7 6 5 6 5 5
15 11 11 4 10 10 4 6 8 11 11 12 20 19 22 22 22 21 21 20 20 20 22 23 22 23 23 20 17 15 15 14 11 9 9 9 7 7 7 8 9 8 8 8 8 6 5 6 5
11 12 8 7 5 11 1 12 9 13 14 15 16 21 22 22 24 23 19 20 21 17 19 20 20 21 18 18 17 17 15 14 13 10 10 10 7 8 8 9 10 10 10 8 9 7 6 7 6
24 8 8 14 13 1 3 13 4 12 14 19 19 19 20 21 26 23 21 20 20 20 18 20 19 19 19 19 19 17 15 14 14 12 11 10 9 9 10 9 10 10 9 9 10 10 9 10 9
Wind_Direction
165 152 141 194 205 195 246 233 30 133 201 211 159 184 137 27 118 187 140 140 130 135 144 138 134 130 127 121 118 112 120 115 120 120 118 120 123 123 120 116 116 118 120 115 108 103 96 97 106
159 145 203 276 211 296 276 356 212 193 213 132 107 128 63 89 92 121 121 145 135 135 134 139 139 131 129 125 116 120 118 115 116 114 115 116 116 121 115 120 123 120 112 105 96 99 98 97 104
167 184 285 227 130 172 280 235 264 257 177 166 109 51 81 85 115 136 134 137 132 123 125 146 139 136 130 129 122 123 118 120 123 117 118 126 125 116 112 113 113 113 114 110 101 98 98 102 101
168 224 229 237 246 198 224 82 280 232 63 54 111 79 81 100 134 141 141 136 126 129 137 144 142 140 133 132 128 128 127 123 120 122 116 119 113 115 115 117 113 110 109 102 98 99 102 97 92
277 267 243 244 308 6 359 345 232 198 70 99 73 82 96 99 108 133 139 133 134 127 139 145 144 138 138 135 134 133 130 131 122 127 124 121 117 116 119 118 115 108 103 96 96 99 98 100 97
174 312 319 336 309 331 341 46 303 227 96 108 106 104 96 137 136 144 143 136 141 134 136 147 146 141 139 137 141 136 135 133 129 117 117 123 120 120 120 121 117 110 106 100 96 96 96 99 90
207 122 212 203 281 353 0 351 184 127 144 149 146 93 117 150 144 148 138 135 143 138 132 138 144 148 148 148 143 139 144 135 132 128 118 127 131 128 126 124 119 115 106 102 99 104 105 97 90
115 117 235 267 315 83 354 338 273 148 117 124 148 160 161 165 150 147 123 140 138 141 135 143 136 138 145 146 149 148 148 145 136 133 135 137 133 132 133 132 128 122 115 106 103 101 109 113 114
150 102 236 229 183 159 326 347 159 65 153 181 124 135 141 151 146 144 139 144 146 146 148 146 136 148 146 140 162 155 155 150 145 141 144 98 47 75 107 153 137 123 114 104 90 72 88 99 118
188 183 215 216 159 134 30 320 300 130 161 64 76 104 134 149 153 155 158 159 160 166 165 157 152 158 156 161 151 144 163 152 137 125 115 116 126 158 139 281 217 110 91 73 68 64 62 92 93
200 208 168 225 151 138 170 213 181 168 216 193 151 144 151 156 160 162 162 165 168 166 171 166 166 164 169 169 144 163 153 151 134 140 165 177 161 269 26 15 351 16 55 63 80 33 18 19 204
254 235 227 210 201 192 184 200 193 195 247 150 156 155 154 161 165 166 168 168 166 169 175 167 177 175 187 160 161 178 170 171 170 176 203 195 202 199 190 173 206 307 0 8 27 30 6 21 316
235 256 257 238 262 245 184 189 179 203 116 135 146 157 162 163 165 166 166 168 168 172 175 176 178 182 190 176 177 183 190 174 180 183 209 191 220 195 155 201 229 209 268 342 61 15 20 1 33
189 244 257 269 260 206 208 183 117 61 136 148 156 165 169 172 170 165 163 173 174 175 176 175 186 188 181 183 186 197 175 181 186 193 205 210 227 207 178 203 234 191 178 317 22 47 30 7 22
251 279 298 269 259 234 186 150 206 147 147 155 165 167 173 177 175 177 172 176 176 181 176 180 184 186 191 192 180 193 189 190 194 205 196 201 213 228 185 183 236 122 115 272 19 61 354 106 25
179 156 200 247 208 206 164 212 147 154 152 164 170 173 178 185 181 180 179 176 182 179 179 182 187 187 197 195 176 187 198 203 208 198 193 184 212 229 173 174 213 162 135 265 12 316 327 133 118
299 209 182 279 196 179 197 140 163 164 165 168 176 179 183 187 191 189 182 176 184 183 179 182 188 184 197 198 181 187 208 212 200 171 181 176 202 204 184 171 196 177 108 215 226 11 274 349 107
202 204 212 216 218 196 210 180 168 174 177 175 181 186 190 195 196 185 188 185 176 183 180 181 188 189 194 181 162 139 185 182 183 185 180 165 190 187 177 163 159 154 152 156 213 84 47 64 124
186 202 215 250 198 172 208 199 179 181 177 186 187 193 198 201 196 196 191 190 186 180 185 186 188 194 179 164 172 171 188 180 171 203 176 173 172 192 175 150 148 152 157 166 123 105 83 36 60
244 245 251 287 210 176 251 215 188 182 191 191 187 194 201 198 201 201 196 190 194 186 186 189 193 187 190 191 196 184 163 158 162 182 179 168 179 188 196 165 178 177 153 156 141 107 86 53 24
221 223 220 235 57 215 137 257 192 203 198 192 209 207 201 202 200 199 199 195 191 191 189 189 192 189 192 190 146 75 80 70 112 127 155 195 183 181 204 185 174 185 169 177 156 138 129 139 6
220 211 225 244 129 217 160 237 213 185 197 201 204 209 204 209 211 202 203 199 196 193 192 190 192 191 193 179 183 194 194 199 190 160 173 196 190 188 190 201 173 179 176 184 182 157 144 120 160
230 165 203 236 197 300 235 111 247 187 202 206 206 214 206 208 208 203 204 199 199 189 187 192 188 195 192 187 191 195 198 192 146 141 160 190 200 196 194 195 189 182 185 189 185 162 165 161 150
162 167 193 119 123 252 238 175 240 197 207 210 211 214 208 209 205 206 209 199 195 192 184 188 187 192 193 189 192 193 197 173 159 168 170 185 195 204 203 193 199 193 181 183 198 192 181 181 147
196 141 218 229 198 235 224 195 219 202 208 209 210 214 204 207 203 204 196 198 195 191 186 186 189 194 190 191 192 195 195 183 188 176 178 171 180 182 208 189 193 197 192 192 190 190 188 184 185
208 199 168 189 200 226 169 216 242 198 217 217 215 215 200 205 210 204 196 196 195 191 188 186 188 195 190 190 195 196 196 192 192 187 185 196 194 197 196 200 199 204 189 189 182 184 192 183 204
196 213 181 107 335 148 212 237 300 189 225 205 218 211 202 201 206 214 203 195 188 190 189 189 189 192 190 191 193 196 194 194 193 185 195 193 183 184 186 197 206 201 189 185 181 194 202 190 202
197 158 200 216 197 225 261 211 215 180 213 210 220 209 210 206 205 207 209 199 196 192 191 190 190 189 187 190 191 195 196 194 192 183 188 190 185 187 182 192 205 205 197 183 183 195 210 197 211
194 196 195 169 177 221 186 242 192 191 195 206 209 209 205 203 202 201 200 200 200 189 190 193 192 191 187 188 191 194 197 197 195 190 191 195 174 184 190 193 201 208 205 184 188 200 198 206 218
225 174 170 202 212 258 165 251 234 207 181 188 206 209 204 199 201 199 196 198 194 194 185 190 192 191 190 190 190 195 193 193 198 201 194 186 178 187 194 197 204 210 208 193 193 199 202 207 215